period_start,C,m1,H,J0,J1,J2,J3,J4,J5,JA,JB,JC,JD,JJ,JK,JN,#
2014-03-08 00:00:03,0.31,5.22,0.00,19.24,24.50,27.50,6.16,32.00,1033.71,2049.00,1901.30,2162.05,2350.23,349.43,333.10,17.82,0000 0000 0000 0000 000000
2014-03-08 00:01:03,0.26,5.22,0.00,19.24,24.50,27.53,6.30,32.08,1033.71,2049.00,1901.10,2162.00,2350.08,350.78,334.39,17.82,0000 0000 0000 0000 000000
2014-03-08 00:02:03,0.12,5.22,0.00,19.25,24.50,27.55,6.26,32.17,1033.71,2049.00,1901.00,2161.71,2350.00,349.36,333.03,17.83,0000 0000 0000 0000 000000
2014-03-08 00:03:03,0.18,5.22,0.00,19.26,24.50,27.55,6.16,32.33,1033.71,2049.00,1900.58,2161.29,2349.63,349.60,333.24,17.83,0000 0000 0000 0000 000000
2014-03-08 00:04:04,0.40,5.22,0.00,19.27,24.50,27.52,6.33,32.21,1033.71,2049.00,1900.22,2161.11,2349.26,350.97,334.54,17.84,0000 0000 0000 0000 000000
2014-03-08 00:05:04,0.28,5.22,0.00,19.27,24.50,27.50,6.43,32.33,1033.72,2049.00,1900.08,2161.04,2349.09,351.68,335.12,17.85,0000 0000 0000 0000 000000
2014-03-08 00:06:04,0.12,5.22,0.00,19.27,24.51,27.54,6.07,31.92,1033.72,2049.00,1900.01,2160.97,2349.02,349.35,333.30,17.85,0000 0000 0000 0000 000000
2014-03-08 00:07:04,0.07,5.22,0.00,19.27,24.52,27.53,6.12,32.17,1033.71,2049.00,1899.77,2160.69,2348.94,349.79,333.42,17.86,0000 0000 0000 0000 000000
2014-03-08 00:08:05,0.27,5.23,0.00,19.27,24.52,27.55,6.31,32.17,1033.71,2049.00,1899.34,2160.28,2348.53,349.23,332.88,17.86,0000 0000 0000 0000 000000
2014-03-08 00:09:05,0.42,5.23,0.00,19.28,24.52,27.54,6.29,32.46,1033.71,2049.00,1899.11,2160.10,2348.20,350.19,334.03,17.87,0000 0000 0000 0000 000000
2014-03-08 00:10:05,0.19,5.23,0.00,19.29,24.52,27.55,6.36,32.33,1033.71,2049.00,1898.99,2160.03,2348.07,350.39,333.96,17.88,0000 0000 0000 0000 000000
2014-03-08 00:11:05,0.08,5.23,0.00,19.29,24.52,27.54,6.25,32.13,1033.71,2049.00,1898.66,2159.98,2348.01,349.94,333.84,17.88,0000 0000 0000 0000 000000
2014-03-08 00:12:06,0.16,5.23,0.00,19.29,24.52,27.55,6.26,32.13,1033.71,2049.00,1898.25,2159.71,2347.80,349.31,332.93,17.89,0000 0000 0000 0000 000000
2014-03-08 00:13:06,0.32,5.23,0.00,19.30,24.52,27.52,6.22,32.29,1033.71,2049.00,1898.09,2159.37,2347.36,349.91,333.04,17.89,0000 0000 0000 0000 000000
2014-03-08 00:14:06,0.29,5.23,0.00,19.29,24.52,27.52,6.42,32.17,1033.71,2049.00,1898.01,2159.14,2347.15,349.81,333.40,17.90,0000 0000 0000 0000 000000
2014-03-08 00:15:06,0.14,5.23,0.00,19.29,24.52,27.54,6.38,32.33,1033.71,2049.00,1897.66,2159.05,2347.04,350.48,334.17,17.90,0000 0000 0000 0000 000000
2014-03-08 00:16:06,0.21,5.24,0.00,19.30,24.52,27.55,6.15,32.13,1033.71,2049.00,1897.25,2158.94,2346.94,349.36,333.21,17.91,0000 0000 0000 0000 000000
2014-03-08 00:17:06,0.19,5.24,0.00,19.31,24.52,27.55,6.22,32.38,1033.71,2049.00,1897.09,2158.64,2346.55,350.32,333.43,17.92,0000 0000 0000 0000 000000
2014-03-08 00:18:06,0.30,5.24,0.00,19.32,24.52,27.55,6.11,32.21,1033.71,2049.00,1897.03,2158.24,2346.23,349.40,333.05,17.92,0000 0000 0000 0000 000000
2014-03-08 00:19:07,0.23,5.24,0.00,19.32,24.53,27.58,6.28,32.08,1033.71,2049.00,1896.86,2158.08,2346.08,349.40,333.06,17.93,0000 0000 0000 0000 000000
2014-03-08 00:20:07,0.13,5.24,0.00,19.31,24.53,27.56,6.23,31.88,1033.71,2049.00,1896.41,2158.03,2346.01,349.94,333.53,17.93,0000 0000 0000 0000 000000
2014-03-08 00:21:07,0.20,5.24,0.00,19.32,24.54,27.56,6.13,32.21,1033.70,2049.00,1896.17,2157.97,2345.87,349.38,332.94,17.94,0000 0000 0000 0000 000000
2014-03-08 00:22:07,0.12,5.24,0.00,19.32,24.54,27.57,6.18,32.21,1033.69,2049.00,1896.06,2157.75,2345.45,350.15,334.08,17.95,0000 0000 0000 0000 000000
2014-03-08 00:23:07,0.25,5.24,0.00,19.32,24.55,27.52,6.15,32.17,1033.71,2049.00,1895.98,2157.33,2345.17,349.30,332.68,17.95,0000 0000 0000 0000 000000
2014-03-08 00:24:08,0.26,5.25,0.00,19.32,24.55,27.53,6.19,32.04,1033.69,2049.00,1895.61,2157.12,2345.06,350.46,334.00,17.96,0000 0000 0000 0000 000000
2014-03-08 00:25:08,0.23,5.25,0.00,19.32,24.55,27.56,6.17,32.13,1033.69,2049.00,1895.23,2157.04,2344.94,349.04,332.70,17.96,0000 0000 0000 0000 000000
2014-03-08 00:26:08,0.16,5.25,0.00,19.32,24.55,27.56,6.22,32.21,1033.70,2049.00,1895.08,2156.96,2344.50,350.35,333.95,17.97,0000 0000 0000 0000 000000
2014-03-08 00:27:08,0.21,5.25,0.00,19.32,24.55,27.57,6.23,32.17,1033.70,2048.99,1894.87,2156.60,2344.20,349.31,333.10,17.98,0000 0000 0000 0000 000000
2014-03-08 00:28:09,0.28,5.25,0.00,19.32,24.55,27.55,6.23,32.08,1033.71,2048.99,1894.39,2156.23,2344.07,350.39,333.76,17.98,0000 0000 0000 0000 000000
2014-03-08 00:29:09,0.35,5.25,0.00,19.32,24.55,27.54,6.21,32.38,1033.70,2048.99,1894.14,2156.08,2343.93,349.65,332.86,17.99,0000 0000 0000 0000 000000
2014-03-08 00:30:09,0.15,5.25,0.00,19.33,24.55,27.53,6.27,32.29,1033.68,2048.99,1894.02,2156.01,2343.50,349.59,333.05,17.99,0000 0000 0000 0000 000000
2014-03-08 00:31:09,0.18,5.26,0.00,19.34,24.55,27.54,6.32,32.25,1033.70,2048.97,1893.74,2155.87,2343.19,350.20,333.51,18.00,0000 0000 0000 0000 000000
2014-03-08 00:32:09,0.19,5.26,0.00,19.34,24.55,27.58,6.21,32.04,1033.71,2048.97,1893.36,2155.44,2343.07,350.07,333.60,18.00,0000 0000 0000 0000 000000
2014-03-08 00:33:10,0.36,5.26,0.00,19.34,24.55,27.57,6.26,32.00,1033.71,2048.98,1893.14,2155.18,2343.01,348.85,332.43,18.01,0000 0000 0000 0000 000000
2014-03-08 00:34:10,0.19,5.26,0.00,19.34,24.56,27.56,6.27,32.08,1033.70,2048.99,1893.04,2155.07,2342.97,349.81,333.40,18.02,0000 0000 0000 0000 000000
2014-03-08 00:35:10,0.08,5.26,0.00,19.36,24.56,27.57,6.16,32.29,1033.71,2048.98,1892.96,2155.02,2342.70,349.91,333.36,18.02,0000 0000 0000 0000 000000
2014-03-08 00:36:11,0.10,5.26,0.00,19.36,24.57,27.59,6.15,32.25,1033.70,2048.99,1892.61,2154.96,2342.33,349.86,333.36,18.03,0000 0000 0000 0000 000000
2014-03-08 00:37:11,0.24,5.26,0.00,19.36,24.57,27.55,6.33,31.92,1033.71,2048.99,1892.24,2154.63,2342.11,350.06,333.25,18.03,0000 0000 0000 0000 000000
2014-03-08 00:38:11,0.31,5.26,0.00,19.37,24.57,27.60,6.24,32.13,1033.71,2048.99,1892.08,2154.26,2342.01,349.86,333.37,18.04,0000 0000 0000 0000 000000
2014-03-08 00:39:11,0.23,5.27,0.00,19.37,24.57,27.59,5.97,31.79,1033.70,2048.98,1891.97,2154.09,2341.76,349.43,332.96,18.05,0000 0000 0000 0000 000000
2014-03-08 00:40:11,0.13,5.27,0.00,19.38,24.57,27.57,6.28,32.00,1033.71,2048.99,1891.57,2154.02,2341.33,350.09,333.57,18.05,0000 0000 0000 0000 000000
2014-03-08 00:41:12,0.31,5.27,0.00,19.39,24.57,27.59,6.17,32.00,1033.71,2048.99,1891.23,2153.90,2341.12,349.35,332.86,18.06,0000 0000 0000 0000 000000
2014-03-08 00:42:12,0.18,5.27,0.00,19.39,24.57,27.58,6.22,32.13,1033.71,2048.99,1891.07,2153.49,2341.04,350.89,334.33,18.06,0000 0000 0000 0000 000000
2014-03-08 00:43:12,0.26,5.27,0.00,19.39,24.57,27.58,6.07,31.83,1033.71,2048.97,1890.93,2153.19,2340.91,349.97,333.44,18.07,0000 0000 0000 0000 000000
2014-03-08 00:44:12,0.15,5.27,0.00,19.40,24.57,27.57,6.23,32.00,1033.71,2048.97,1890.46,2153.07,2340.47,350.23,333.69,18.07,0000 0000 0000 0000 000000
2014-03-08 00:45:13,0.34,5.27,0.00,19.39,24.57,27.57,6.02,31.92,1033.71,2048.96,1890.17,2153.02,2340.17,349.66,333.14,18.08,0000 0000 0000 0000 000000
2014-03-08 00:46:13,0.19,5.27,0.00,19.40,24.57,27.61,6.08,31.71,1033.71,2048.97,1890.03,2152.93,2340.06,349.25,332.53,18.09,0000 0000 0000 0000 000000
2014-03-08 00:47:13,0.09,5.28,0.00,19.40,24.58,27.60,6.26,31.67,1033.71,2048.98,1889.94,2152.59,2340.01,350.72,334.15,18.09,0000 0000 0000 0000 000000
2014-03-08 00:48:13,0.19,5.28,0.00,19.41,24.59,27.57,6.26,31.92,1033.71,2048.98,1889.62,2152.24,2339.83,350.32,333.76,18.10,0000 0000 0000 0000 000000
2014-03-08 00:49:13,0.30,5.28,0.00,19.42,24.59,27.64,6.08,31.92,1033.71,2048.99,1889.24,2152.08,2339.40,349.47,332.94,18.10,0000 0000 0000 0000 000000
2014-03-08 00:50:14,0.31,5.28,0.00,19.42,24.60,27.60,6.30,31.75,1033.71,2048.98,1889.08,2152.02,2339.14,350.20,334.01,18.11,0000 0000 0000 0000 000000
2014-03-08 00:51:14,0.13,5.28,0.00,19.42,24.60,27.60,6.27,32.04,1033.71,2048.98,1888.90,2151.84,2339.05,349.49,333.23,18.12,0000 0000 0000 0000 000000
2014-03-08 00:52:14,0.13,5.28,0.00,19.42,24.60,27.58,6.09,31.83,1033.71,2048.96,1888.41,2151.38,2338.82,349.59,333.22,18.12,0000 0000 0000 0000 000000
2014-03-08 00:53:14,0.40,5.28,0.00,19.42,24.60,27.62,6.15,31.96,1033.71,2048.95,1888.15,2151.14,2338.36,349.92,333.37,18.13,0000 0000 0000 0000 000000
2014-03-08 00:54:15,0.26,5.29,0.00,19.42,24.60,27.59,6.10,32.00,1033.71,2048.94,1888.05,2151.05,2338.13,349.55,333.45,18.13,0000 0000 0000 0000 000000
2014-03-08 00:55:15,0.09,5.29,0.00,19.42,24.60,27.63,6.32,32.00,1033.71,2048.97,1887.79,2150.97,2338.04,350.67,334.06,18.14,0000 0000 0000 0000 000000
2014-03-08 00:56:15,0.18,5.29,0.00,19.43,24.60,27.60,6.26,31.79,1033.71,2048.97,1887.39,2150.70,2337.95,350.07,333.96,18.14,0000 0000 0000 0000 000000
2014-03-08 00:57:16,0.29,5.29,0.00,19.42,24.60,27.63,5.99,31.79,1033.71,2048.95,1887.15,2150.32,2337.56,349.01,332.87,18.15,0000 0000 0000 0000 000000
2014-03-08 00:58:16,0.30,5.29,0.00,19.44,24.60,27.61,6.21,32.17,1033.71,2048.97,1886.99,2150.12,2337.22,350.34,333.55,18.16,0000 0000 0000 0000 000000
2014-03-08 00:59:16,0.23,5.29,0.00,19.44,24.60,27.62,6.16,31.88,1033.71,2048.97,1886.53,2150.03,2337.07,349.69,333.13,18.16,0000 0000 0000 0000 000000
2014-03-08 01:00:16,0.21,5.29,0.00,19.45,24.60,27.61,6.24,32.13,1033.71,2048.98,1886.19,2149.93,2337.01,350.65,334.04,18.17,0000 0000 0000 0000 000000
2014-03-08 01:01:17,0.19,5.29,0.00,19.45,24.60,27.62,6.27,31.83,1033.71,2048.99,1886.06,2149.51,2336.70,350.16,333.54,18.17,0000 0000 0000 0000 000000
2014-03-08 01:02:17,0.30,5.30,0.00,19.46,24.61,27.63,6.17,32.00,1033.71,2048.97,1885.87,2149.20,2336.30,349.90,333.48,18.18,0000 0000 0000 0000 000000
2014-03-08 01:03:17,0.25,5.30,0.00,19.47,24.62,27.59,6.32,32.00,1033.71,2048.98,1885.37,2149.07,2336.11,350.40,333.29,18.19,0000 0000 0000 0000 000000
2014-03-08 01:04:17,0.26,5.30,0.00,19.47,24.62,27.60,6.20,32.04,1033.71,2048.95,1885.13,2148.97,2335.96,350.17,332.99,18.19,0000 0000 0000 0000 000000
2014-03-08 01:05:18,0.14,5.30,0.00,19.47,24.62,27.62,6.29,32.00,1033.71,2048.88,1884.95,2148.55,2335.49,349.83,333.14,18.20,0000 0000 0000 0000 000000
2014-03-08 01:06:18,0.29,5.30,0.00,19.47,24.62,27.62,6.25,32.08,1033.71,2048.85,1884.46,2148.20,2335.19,350.29,333.67,18.20,0000 0000 0000 0000 000000
2014-03-08 01:07:18,0.35,5.30,0.00,19.47,24.62,27.61,6.09,31.96,1033.69,2048.78,1884.17,2148.07,2335.06,349.63,333.07,18.21,0000 0000 0000 0000 000000
2014-03-08 01:08:19,0.09,5.30,0.00,19.47,24.62,27.61,6.19,32.08,1033.70,2048.75,1883.97,2147.98,2334.74,349.24,332.76,18.21,0000 0000 0000 0000 000000
2014-03-08 01:09:19,0.16,5.31,0.00,19.47,24.62,27.61,6.17,32.00,1033.69,2048.65,1883.53,2147.58,2334.29,350.75,333.66,18.22,0000 0000 0000 0000 000000
2014-03-08 01:10:19,0.35,5.31,0.00,19.48,24.62,27.61,6.19,31.96,1033.64,2048.51,1883.19,2147.21,2334.10,349.53,332.90,18.23,0000 0000 0000 0000 000000
2014-03-08 01:11:19,0.15,5.31,0.00,19.49,24.62,27.64,6.32,31.96,1033.64,2048.54,1883.01,2147.07,2334.00,350.92,334.19,18.23,0000 0000 0000 0000 000000
2014-03-08 01:12:20,0.18,5.31,0.00,19.49,24.63,27.61,6.33,31.88,1033.68,2048.49,1882.55,2146.99,2333.60,350.70,334.02,18.24,0000 0000 0000 0000 000000
2014-03-08 01:13:20,0.24,5.31,0.00,19.49,24.63,27.60,6.32,32.00,1033.67,2048.51,1882.22,2146.61,2333.25,350.13,333.47,18.24,0000 0000 0000 0000 000000
2014-03-08 01:14:20,0.35,5.31,0.00,19.49,24.64,27.60,6.08,32.13,1033.63,2048.54,1882.06,2146.23,2333.08,350.23,333.58,18.25,0000 0000 0000 0000 000000
2014-03-08 01:15:20,0.30,5.32,0.00,19.49,24.64,27.64,6.09,31.92,1033.67,2048.55,1881.78,2146.08,2332.92,349.20,332.38,18.26,0000 0000 0000 0000 000000
2014-03-08 01:16:21,0.18,5.32,0.00,19.49,24.65,27.65,6.18,31.79,1033.67,2048.53,1881.31,2145.94,2332.48,350.07,333.59,18.26,0000 0000 0000 0000 000000
2014-03-08 01:17:21,0.32,5.32,0.00,19.51,24.65,27.65,6.18,31.96,1033.69,2048.44,1881.10,2145.49,2332.18,349.94,333.48,18.27,0000 0000 0000 0000 000000
2014-03-08 01:18:21,0.19,5.32,0.00,19.52,24.65,27.63,6.23,31.75,1033.71,2048.40,1880.83,2145.18,2332.05,349.52,332.62,18.27,0000 0000 0000 0000 000000
2014-03-08 01:19:21,0.19,5.32,0.00,19.52,24.65,27.64,6.14,31.88,1033.70,2048.35,1880.34,2145.05,2331.75,350.79,334.13,18.28,0000 0000 0000 0000 000000
2014-03-08 01:20:22,0.25,5.32,0.00,19.52,24.65,27.67,6.35,31.92,1033.70,2048.32,1880.11,2144.90,2331.31,349.67,333.27,18.29,0000 0000 0000 0000 000000
2014-03-08 01:21:22,0.21,5.32,0.00,19.52,24.65,27.67,6.28,31.92,1033.71,2048.29,1879.80,2144.43,2331.11,350.35,333.66,18.29,0000 0000 0000 0000 000000
2014-03-08 01:22:22,0.33,5.33,0.00,19.52,24.65,27.64,6.25,32.08,1033.71,2048.22,1879.32,2144.16,2330.90,349.43,332.79,18.30,0000 0000 0000 0000 000000
2014-03-08 01:23:22,0.25,5.33,0.00,19.52,24.65,27.67,6.32,32.25,1033.71,2048.25,1879.10,2144.06,2330.47,349.78,333.11,18.30,0000 0000 0000 0000 000000
2014-03-08 01:24:22,0.26,5.33,0.00,19.54,24.65,27.66,6.07,31.83,1033.71,2048.24,1878.82,2143.90,2330.17,349.70,333.03,18.31,0000 0000 0000 0000 000000
2014-03-08 01:25:23,0.22,5.33,0.00,19.53,24.66,27.65,6.26,32.00,1033.70,2048.24,1878.35,2143.43,2330.05,350.36,333.90,18.31,0000 0000 0000 0000 000000
2014-03-08 01:26:23,0.39,5.33,0.00,19.54,24.66,27.68,6.30,32.13,1033.71,2048.26,1878.11,2143.15,2329.67,349.35,332.69,18.32,0000 0000 0000 0000 000000
2014-03-08 01:27:23,0.29,5.33,0.00,19.54,24.67,27.67,6.27,31.88,1033.70,2048.18,1877.64,2143.00,2329.25,350.21,333.50,18.33,0000 0000 0000 0000 000000
2014-03-08 01:28:23,0.26,5.34,0.00,19.54,24.67,27.63,6.25,31.71,1033.71,2048.18,1877.24,2142.63,2329.08,350.82,334.08,18.33,0000 0000 0000 0000 000000
2014-03-08 01:29:23,0.27,5.34,0.00,19.55,24.67,27.66,6.19,32.00,1033.71,2048.17,1877.06,2142.26,2328.85,349.88,333.19,18.34,0000 0000 0000 0000 000000
2014-03-08 01:30:24,0.30,5.34,0.00,19.57,24.67,27.68,6.23,32.04,1033.71,2048.10,1876.64,2142.09,2328.34,350.25,333.51,18.34,0000 0000 0000 0000 000000
2014-03-08 01:31:24,0.25,5.34,0.00,19.59,24.67,27.68,6.11,32.25,1033.72,2048.09,1876.23,2141.78,2328.12,350.20,333.04,18.35,0000 0000 0000 0000 000000
2014-03-08 01:32:24,0.31,5.34,0.00,19.59,24.67,27.67,6.18,32.04,1033.71,2048.07,1876.01,2141.34,2327.91,350.51,333.73,18.36,0000 0000 0000 0000 000000
2014-03-08 01:33:25,0.30,5.34,0.00,19.59,24.67,27.69,6.10,32.04,1033.71,2048.05,1875.53,2141.12,2327.43,349.79,333.04,18.36,0000 0000 0000 0000 000000
2014-03-08 01:34:25,0.34,5.35,0.00,19.59,24.68,27.69,6.27,32.08,1033.71,2048.07,1875.20,2141.03,2327.15,350.26,333.37,18.37,0000 0000 0000 0000 000000
2014-03-08 01:35:25,0.25,5.35,0.00,19.59,24.68,27.68,6.12,32.08,1033.71,2048.06,1874.96,2140.66,2327.00,350.18,333.59,18.37,0000 0000 0000 0000 000000
2014-03-08 01:36:26,0.30,5.35,0.00,19.59,24.69,27.66,6.14,32.04,1033.72,2048.06,1874.44,2140.26,2326.48,349.48,332.87,18.38,0000 0000 0000 0000 000000
2014-03-08 01:37:26,0.42,5.35,0.00,19.59,24.70,27.70,6.07,31.79,1033.71,2048.05,1874.15,2140.09,2326.17,349.39,332.82,18.38,0000 0000 0000 0000 000000
2014-03-08 01:38:26,0.23,5.35,0.00,19.60,24.70,27.69,6.11,32.04,1033.71,2048.03,1873.90,2139.87,2326.00,349.68,332.72,18.39,0000 0000 0000 0000 000000
2014-03-08 01:39:27,0.23,5.35,0.00,19.62,24.70,27.68,6.22,31.88,1033.71,2048.03,1873.45,2139.38,2325.55,349.82,333.21,18.40,0000 0000 0000 0000 000000
2014-03-08 01:40:27,0.43,5.36,0.00,19.62,24.70,27.68,6.11,31.92,1033.72,2048.05,1873.16,2139.14,2325.21,349.69,332.92,18.40,0000 0000 0000 0000 000000
2014-03-08 01:41:27,0.31,5.36,0.00,19.62,24.70,27.69,6.33,31.96,1033.72,2048.02,1872.73,2138.97,2325.03,351.10,333.90,18.41,0000 0000 0000 0000 000000
2014-03-08 01:42:28,0.28,5.36,0.00,19.62,24.70,27.69,6.23,32.13,1033.76,2048.05,1872.26,2138.51,2324.56,350.25,333.29,18.41,0000 0000 0000 0000 000000
2014-03-08 01:43:28,0.42,5.36,0.00,19.62,24.70,27.64,6.26,32.13,1033.73,2048.05,1872.06,2138.19,2324.20,350.37,334.00,18.42,0000 0000 0000 0000 000000
2014-03-08 01:44:28,0.33,5.36,0.00,19.63,24.70,27.70,6.23,31.96,1033.74,2048.03,1871.56,2138.04,2324.03,350.34,333.54,18.43,0000 0000 0000 0000 000000
2014-03-08 01:45:28,0.28,5.37,0.00,19.64,24.71,27.72,6.16,31.88,1033.76,2048.02,1871.18,2137.65,2323.57,349.45,332.68,18.43,0000 0000 0000 0000 000000
2014-03-08 01:46:29,0.36,5.37,0.00,19.64,24.71,27.70,6.29,31.92,1033.78,2048.02,1870.81,2137.25,2323.21,349.24,332.33,18.44,0000 0000 0000 0000 000000
2014-03-08 01:47:29,0.37,5.37,0.00,19.64,24.72,27.72,6.22,31.79,1033.78,2048.02,1870.31,2137.08,2323.03,350.88,334.00,18.44,0000 0000 0000 0000 000000
2014-03-08 01:48:29,0.32,5.37,0.00,19.65,24.72,27.70,6.21,31.96,1033.80,2048.02,1870.10,2136.82,2322.55,349.60,332.95,18.45,0000 0000 0000 0000 000000
2014-03-08 01:49:29,0.29,5.37,0.00,19.67,24.72,27.69,6.18,32.00,1033.92,2048.01,1869.72,2136.36,2322.21,349.20,332.84,18.46,0000 0000 0000 0000 000000
2014-03-08 01:50:30,0.37,5.38,0.00,19.67,24.72,27.69,6.23,31.75,1033.94,2048.01,1869.27,2136.13,2322.07,350.15,333.41,18.46,0000 0000 0000 0000 000000
2014-03-08 01:51:30,0.29,5.38,0.00,19.68,24.72,27.68,6.34,32.00,1034.01,2048.02,1869.10,2136.03,2321.73,350.53,333.66,18.47,0000 0000 0000 0000 000000
2014-03-08 01:52:30,0.20,5.38,0.00,19.68,24.72,27.70,6.19,32.00,1034.01,2048.01,1868.77,2135.68,2321.30,349.67,333.04,18.47,0000 0000 0000 0000 000000
2014-03-08 01:53:31,0.33,5.38,0.00,19.69,24.73,27.70,6.37,31.92,1033.93,2048.00,1868.29,2135.26,2321.09,350.23,333.10,18.48,0000 0000 0000 0000 000000
2014-03-08 01:54:31,0.39,5.38,0.00,19.69,24.74,27.73,6.20,32.00,1033.87,2048.00,1867.99,2135.06,2320.70,349.61,332.89,18.48,0000 0000 0000 0000 000000
2014-03-08 01:55:31,0.30,5.39,0.00,19.69,24.74,27.73,6.14,31.75,1033.86,2048.00,1867.46,2134.66,2320.26,349.23,332.63,18.49,0000 0000 0000 0000 000000
2014-03-08 01:56:31,0.41,5.39,0.00,19.70,24.75,27.70,6.25,32.17,1033.76,2048.00,1867.16,2134.26,2320.09,349.80,332.96,18.50,0000 0000 0000 0000 000000
2014-03-08 01:57:32,0.32,5.39,0.00,19.71,24.75,27.70,6.24,31.88,1033.72,2048.00,1866.87,2134.09,2319.77,349.69,332.82,18.50,0000 0000 0000 0000 000000
2014-03-08 01:58:32,0.25,5.39,0.00,19.71,24.75,27.72,6.26,31.96,1033.75,2048.00,1866.35,2133.92,2319.29,350.16,333.28,18.51,0000 0000 0000 0000 000000
2014-03-08 01:59:32,0.37,5.39,0.00,19.70,24.75,27.70,6.26,31.92,1033.78,2048.00,1866.12,2133.45,2319.10,350.15,333.28,18.51,0000 0000 0000 0000 000000
2014-03-08 02:00:33,0.32,5.40,0.00,19.71,24.75,27.68,6.24,32.04,1033.74,2048.00,1865.77,2133.16,2318.87,350.83,333.55,18.52,0000 0000 0000 0000 000000
2014-03-08 02:01:33,0.29,5.40,0.00,19.72,24.75,27.71,6.21,31.92,1033.76,2048.00,1865.31,2133.03,2318.39,350.13,333.24,18.53,0000 0000 0000 0000 000000
2014-03-08 02:02:33,0.33,5.40,0.00,19.72,24.76,27.72,6.09,32.08,1033.77,2048.00,1865.09,2132.64,2318.14,349.98,333.10,18.53,0000 0000 0000 0000 000000
2014-03-08 02:03:33,0.31,5.40,0.00,19.72,24.77,27.72,6.21,32.00,1033.75,2048.00,1864.57,2132.26,2317.93,350.33,333.43,18.54,0000 0000 0000 0000 000000
2014-03-08 02:04:34,0.37,5.40,0.00,19.74,24.77,27.75,6.26,32.13,1033.72,2048.00,1864.20,2132.09,2317.43,350.41,333.64,18.54,0000 0000 0000 0000 000000
2014-03-08 02:05:34,0.31,5.41,0.00,19.74,24.77,27.72,6.38,31.92,1033.78,2048.00,1864.04,2131.95,2317.15,351.31,333.90,18.55,0000 0000 0000 0000 000000
2014-03-08 02:06:34,0.22,5.41,0.00,19.74,24.77,27.74,6.16,31.71,1033.75,2048.00,1863.64,2131.53,2317.02,349.62,332.50,18.55,0000 0000 0000 0000 000000
2014-03-08 02:07:35,0.34,5.41,0.00,19.75,24.77,27.74,6.17,31.88,1033.74,2048.00,1863.24,2131.20,2316.56,350.34,333.52,18.56,0000 0000 0000 0000 000000
2014-03-08 02:08:35,0.35,5.41,0.00,19.77,24.78,27.70,6.30,32.00,1033.74,2048.00,1862.96,2131.04,2316.20,350.39,333.43,18.57,0000 0000 0000 0000 000000
2014-03-08 02:09:35,0.30,5.41,0.00,19.77,24.79,27.73,6.26,32.04,1033.79,2047.99,1862.44,2130.63,2315.96,349.35,333.09,18.57,0000 0000 0000 0000 000000
2014-03-08 02:10:35,0.38,5.42,0.00,19.77,24.80,27.77,6.21,32.08,1033.77,2047.98,1862.16,2130.24,2315.45,349.94,333.00,18.58,0000 0000 0000 0000 000000
2014-03-08 02:11:36,0.35,5.42,0.00,19.79,24.80,27.77,6.32,31.96,1033.76,2047.99,1861.77,2130.07,2315.17,350.18,333.46,18.58,0000 0000 0000 0000 000000
2014-03-08 02:12:36,0.29,5.42,0.00,19.79,24.80,27.77,6.13,32.13,1033.78,2047.98,1861.29,2129.76,2314.94,349.29,332.36,18.59,0000 0000 0000 0000 000000
2014-03-08 02:13:36,0.39,5.42,0.00,19.81,24.80,27.77,6.19,31.96,1033.74,2047.97,1861.03,2129.30,2314.42,350.20,333.36,18.60,0000 0000 0000 0000 000000
2014-03-08 02:14:36,0.40,5.42,0.00,19.82,24.80,27.73,6.28,32.08,1033.73,2047.97,1860.47,2129.11,2314.15,350.06,333.02,18.60,0000 0000 0000 0000 000000
2014-03-08 02:15:37,0.29,5.42,0.00,19.82,24.81,27.72,6.17,32.17,1033.72,2047.96,1860.17,2128.76,2313.88,349.45,333.08,18.61,0000 0000 0000 0000 000000
2014-03-08 02:16:37,0.31,5.43,0.00,19.82,24.82,27.73,6.19,31.96,1033.71,2047.95,1859.86,2128.31,2313.36,350.21,333.19,18.61,0000 0000 0000 0000 000000
2014-03-08 02:17:37,0.40,5.43,0.00,19.84,24.82,27.79,6.08,32.00,1033.72,2047.97,1859.36,2128.09,2313.13,349.45,332.45,18.62,0000 0000 0000 0000 000000
2014-03-08 02:18:38,0.33,5.43,0.00,19.84,24.82,27.77,6.21,32.08,1033.74,2047.98,1859.10,2127.91,2312.87,349.56,332.21,18.63,0000 0000 0000 0000 000000
2014-03-08 02:19:38,0.33,5.43,0.00,19.84,24.82,27.77,6.27,31.83,1033.72,2047.96,1858.58,2127.39,2312.35,350.88,333.80,18.63,0000 0000 0000 0000 000000
2014-03-08 02:20:38,0.43,5.43,0.00,19.85,24.82,27.75,6.01,32.00,1033.74,2047.98,1858.21,2127.14,2312.12,349.06,332.07,18.64,0000 0000 0000 0000 000000
2014-03-08 02:21:38,0.30,5.44,0.00,19.86,24.83,27.76,6.30,32.04,1033.75,2047.97,1857.95,2126.94,2311.84,350.77,333.67,18.64,0000 0000 0000 0000 000000
2014-03-08 02:22:39,0.32,5.44,0.00,19.87,24.84,27.71,6.26,32.13,1033.79,2047.89,1857.41,2126.42,2311.33,349.92,333.29,18.65,0000 0000 0000 0000 000000
2014-03-08 02:23:39,0.38,5.44,0.00,19.86,24.85,27.76,6.39,32.33,1033.82,2047.87,1857.13,2126.15,2311.11,350.29,333.49,18.65,0000 0000 0000 0000 000000
2014-03-08 02:24:39,0.24,5.44,0.00,19.87,24.85,27.77,6.33,32.17,1033.83,2047.83,1856.69,2126.03,2310.65,350.41,333.12,18.66,0000 0000 0000 0000 000000
2014-03-08 02:25:39,0.28,5.45,0.00,19.87,24.85,27.78,6.12,32.21,1033.82,2047.77,1856.26,2125.59,2310.25,348.93,331.95,18.67,0000 0000 0000 0000 000000
2014-03-08 02:26:40,0.29,5.45,0.00,19.87,24.85,27.75,6.20,32.04,1033.93,2047.67,1856.01,2125.21,2310.07,349.84,332.84,18.67,0000 0000 0000 0000 000000
2014-03-08 02:27:40,0.25,5.45,0.00,19.88,24.85,27.79,6.17,32.00,1033.96,2047.59,1855.50,2125.06,2309.62,349.64,332.45,18.68,0000 0000 0000 0000 000000
2014-03-08 02:28:40,0.27,5.45,0.00,19.89,24.87,27.78,6.35,31.96,1034.03,2047.51,1855.19,2124.67,2309.25,350.20,332.86,18.68,0000 0000 0000 0000 000000
2014-03-08 02:29:41,0.30,5.45,0.00,19.89,24.87,27.76,6.14,32.08,1034.09,2047.45,1854.95,2124.25,2309.04,350.25,333.53,18.69,0000 0000 0000 0000 000000
2014-03-08 02:30:41,0.25,5.45,0.00,19.90,24.87,27.76,6.09,32.08,1034.13,2047.34,1854.41,2124.07,2308.52,350.55,333.75,18.70,0000 0000 0000 0000 000000
2014-03-08 02:31:41,0.24,5.46,0.00,19.90,24.87,27.77,6.25,32.25,1034.13,2047.25,1854.14,2123.61,2308.18,349.96,332.99,18.70,0000 0000 0000 0000 000000
2014-03-08 02:32:41,0.26,5.46,0.00,19.92,24.87,27.80,6.02,32.00,1034.13,2047.15,1853.86,2123.23,2308.01,349.11,332.16,18.71,0000 0000 0000 0000 000000
2014-03-08 02:33:42,0.23,5.46,0.00,19.91,24.88,27.80,6.29,31.96,1034.04,2047.08,1853.36,2123.07,2307.51,349.24,332.54,18.71,0000 0000 0000 0000 000000
2014-03-08 02:34:42,0.25,5.46,0.00,19.92,24.89,27.86,6.16,31.75,1034.05,2047.06,1853.10,2122.72,2307.18,349.52,332.53,18.72,0000 0000 0000 0000 000000
2014-03-08 02:35:42,0.35,5.46,0.00,19.92,24.90,27.82,6.20,32.04,1033.97,2047.08,1852.58,2122.26,2306.94,350.42,333.36,18.72,0000 0000 0000 0000 000000